Wind_Speed
27 28 28 29 29 30 31 31 32 32 33 34 35 37 38 39 40 41 42 43 43 44 45 45 46 47 48 48 48 48 48 47 47 47 46 46 45 43 42 42 42 41 41
26 26 28 28 29 30 31 32 32 32 33 33 35 36 38 39 40 40 41 43 44 45 45 46 47 47 48 49 50 50 49 49 48 48 48 48 47 45 44 43 43 43 43
25 26 28 29 29 30 31 32 32 32 33 33 34 35 36 38 40 40 41 42 43 44 45 46 47 47 47 48 49 50 49 49 48 48 49 49 49 47 46 45 45 45 45
26 27 28 28 29 30 31 31 32 33 34 33 33 34 35 37 38 40 41 42 42 43 43 44 45 46 46 47 48 49 50 50 49 49 49 49 50 49 47 46 46 47 47
26 27 28 28 29 29 30 31 32 33 33 34 34 35 35 36 37 38 39 41 42 42 43 43 44 45 45 45 46 47 48 49 49 49 49 50 51 51 49 47 46 47 47
27 27 27 28 29 29 30 30 31 32 33 33 34 34 35 35 35 36 38 39 39 40 40 41 42 43 44 44 45 46 47 47 48 48 49 50 50 50 50 48 47 47 47
28 28 28 28 29 29 29 30 30 31 32 33 34 34 34 34 35 36 36 37 37 39 40 40 40 41 41 42 44 45 46 47 48 49 49 49 50 49 49 49 48 47 47
27 27 28 28 29 29 29 29 30 31 32 32 33 34 34 34 34 35 35 36 36 37 39 40 40 40 40 41 43 44 45 47 49 50 50 50 50 49 48 48 48 48 47
26 27 28 29 29 30 30 30 31 31 31 32 32 33 34 34 34 34 34 35 35 37 38 39 40 40 41 41 42 43 44 45 47 48 49 49 49 48 48 48 49 48 48
25 26 27 28 29 30 31 31 31 31 31 31 31 31 31 32 32 33 33 34 35 36 37 38 39 41 41 42 42 43 44 45 45 46 47 48 48 48 48 47 48 48 48
24 24 25 26 27 28 29 29 29 29 30 30 30 30 30 30 30 31 32 33 33 34 35 35 36 38 39 41 41 42 43 44 46 47 47 47 47 48 48 48 48 48 48
24 25 26 27 27 28 28 28 28 28 29 29 29 30 30 29 30 30 31 31 32 32 32 33 34 35 36 38 40 40 42 43 44 45 46 46 46 47 48 48 48 48 49
24 25 26 27 28 28 28 28 28 28 28 28 28 28 28 29 29 28 28 28 29 29 30 31 32 33 34 35 37 38 39 41 42 43 44 45 45 46 48 49 49 49 50
25 25 26 27 28 28 28 28 27 27 27 27 27 28 28 28 28 27 27 27 27 28 29 30 31 32 33 34 36 37 38 39 40 40 41 43 44 45 47 48 49 49 50
25 25 26 27 27 28 28 28 27 27 27 27 27 27 27 28 27 27 27 27 28 28 29 29 30 31 31 33 34 35 35 37 38 39 40 42 44 45 46 48 48 49 49
26 26 26 27 27 27 27 27 28 28 27 27 27 27 27 27 28 28 27 27 28 28 29 29 30 30 30 31 32 33 34 35 37 37 39 41 43 44 45 47 48 49 49
26 26 26 26 27 27 27 27 27 27 27 26 26 26 26 27 27 27 27 27 27 28 28 28 28 28 29 29 30 32 33 35 37 37 38 39 41 43 44 46 46 48 49
27 27 26 27 27 27 28 28 28 27 26 25 25 25 25 26 26 26 26 26 27 27 27 27 28 28 29 30 30 31 33 35 36 37 38 38 40 42 43 45 46 48 49
27 27 27 27 27 28 28 28 28 27 25 25 25 25 25 25 25 26 26 27 27 27 27 27 28 29 30 30 30 31 32 33 35 36 36 38 39 40 42 44 45 47 47
28 28 28 28 28 27 27 27 27 26 25 25 24 24 25 25 25 26 26 26 27 27 27 27 28 29 30 30 30 30 30 31 32 33 35 36 37 38 40 41 43 45 45
29 29 29 28 28 27 27 27 27 26 25 25 25 25 25 26 26 26 25 25 25 26 27 27 27 28 28 28 28 28 28 28 29 30 32 33 34 36 38 39 41 42 43
29 29 29 28 28 28 27 27 26 25 26 26 25 26 25 25 25 25 25 25 26 26 26 26 26 26 26 26 26 26 27 28 29 29 30 32 33 35 37 38 39 40 42
29 29 29 28 27 27 27 26 25 25 26 25 26 26 26 26 26 25 25 25 25 25 25 25 26 26 26 27 27 27 27 28 29 30 31 33 34 35 36 37 38 38 39
29 29 28 27 27 26 26 26 26 26 26 26 26 27 27 26 26 26 26 26 26 26 26 27 27 27 27 28 28 29 30 30 31 31 32 33 34 35 35 36 37 38 39
30 30 29 28 28 27 26 26 27 27 27 27 27 27 27 27 26 26 26 27 27 27 27 27 28 28 28 29 30 30 30 31 32 32 33 33 34 35 35 36 37 38 39
30 29 29 29 29 28 28 28 28 28 27 27 28 28 28 28 27 27 28 28 28 29 29 29 29 29 29 30 31 32 32 33 33 33 33 34 35 36 36 37 38 39 39
Wind_Direction
253 254 256 258 260 262 263 266 268 268 267 265 265 264 263 262 261 260 259 257 257 257 257 256 255 254 253 252 251 251 251 252 254 254 254 253 253 254 254 255 256 257 258
255 257 259 260 262 264 265 266 269 270 271 269 268 267 265 263 261 261 260 259 258 258 258 257 255 255 254 252 251 250 250 251 253 254 255 254 254 254 253 255 256 258 259
257 260 262 263 264 266 268 269 270 271 272 271 269 268 268 266 264 262 261 260 260 259 259 258 257 256 254 253 251 250 250 251 252 254 254 255 255 254 253 255 255 257 258
261 263 265 267 268 269 271 272 272 272 272 272 271 270 269 268 267 265 263 261 260 259 260 258 257 256 255 254 252 251 251 251 252 253 253 254 256 254 253 254 256 257 257
262 265 266 268 270 272 273 274 275 275 275 273 273 273 272 271 270 268 266 263 261 260 260 259 257 256 256 256 254 252 252 251 251 251 253 255 256 255 255 255 256 257 258
264 266 268 270 272 274 275 276 276 277 276 275 273 273 273 273 272 270 268 265 262 260 259 258 257 256 256 256 255 252 251 251 251 251 254 255 256 256 257 255 254 256 258
265 268 270 271 273 276 278 279 279 278 277 276 274 273 272 273 273 271 269 267 264 261 259 258 257 256 257 255 254 252 251 251 252 252 254 255 256 256 257 255 255 257 258
268 269 271 273 274 277 279 280 281 281 280 278 275 273 273 274 274 272 269 268 266 264 261 258 256 256 256 256 255 254 253 253 253 252 253 255 256 256 256 257 257 258 259
270 272 273 275 277 279 281 282 282 283 282 280 278 277 276 276 275 272 271 269 268 267 264 260 258 256 256 255 256 256 255 254 253 254 253 254 254 255 256 258 259 260 260
273 275 276 277 279 281 282 283 284 284 284 283 281 280 280 279 276 273 272 271 271 268 266 263 261 259 258 258 257 256 256 255 255 254 254 254 255 255 256 258 259 260 261
276 278 279 280 281 282 284 284 284 285 285 285 283 281 282 281 279 276 274 274 272 270 267 265 262 262 260 259 258 257 257 256 255 254 254 254 255 256 256 257 259 260 261
278 279 280 281 282 283 284 284 284 285 286 286 284 282 283 283 282 280 276 274 273 271 268 266 264 263 261 260 259 258 258 257 256 255 255 255 256 256 256 257 258 259 260
280 281 282 282 282 283 284 285 285 285 286 287 286 285 284 284 284 282 279 276 274 272 271 268 265 264 261 262 262 260 259 258 258 257 256 256 256 257 256 257 258 259 261
282 283 283 283 284 285 285 285 286 286 286 286 286 285 284 284 284 282 279 276 275 274 273 271 269 266 265 265 264 263 261 259 259 258 257 257 257 258 257 258 259 260 262
282 282 283 284 283 284 285 285 285 286 286 285 285 285 284 282 282 281 278 277 276 275 274 273 272 269 266 266 265 265 262 260 259 259 259 259 259 259 258 259 260 261 262
282 282 283 284 284 283 284 284 284 285 285 284 284 283 283 282 280 280 278 276 276 275 274 274 272 270 267 267 267 266 264 262 261 262 262 262 260 260 260 261 261 262 263
284 284 285 285 284 283 284 283 283 283 283 283 284 284 282 283 282 281 280 277 277 277 276 276 275 271 270 270 269 269 267 266 265 265 265 264 262 262 262 263 263 263 264
284 285 286 286 286 285 283 283 283 283 281 280 282 284 283 283 283 281 280 279 279 279 280 277 275 273 272 272 272 271 270 268 266 266 266 266 266 266 266 266 265 265 266
285 286 287 288 288 287 285 283 283 282 279 279 281 284 285 284 283 282 281 280 279 279 280 279 277 277 276 276 275 275 273 271 269 267 268 269 268 268 269 268 267 266 266
286 287 287 287 286 286 286 283 282 280 279 279 280 283 284 285 284 283 283 281 280 280 280 279 279 280 280 279 277 276 276 275 273 271 270 270 271 272 272 272 270 268 268
285 286 286 286 286 285 285 284 281 279 278 278 279 282 284 286 285 284 285 284 283 283 282 281 280 281 281 281 280 278 276 277 276 274 273 273 273 275 276 275 273 272 271
285 285 286 287 286 285 284 284 281 280 280 278 279 282 284 286 286 286 286 286 286 286 285 283 283 282 282 282 281 281 280 278 277 276 276 277 276 277 278 277 276 275 274
284 284 286 286 285 285 284 282 281 281 281 280 280 281 283 284 286 286 286 285 286 286 285 284 283 282 282 282 281 281 280 281 280 279 279 279 280 280 281 280 279 278 277
284 284 284 284 284 284 284 283 283 284 283 281 281 282 283 284 283 283 284 283 284 284 283 283 282 281 281 282 282 282 282 283 283 282 282 282 282 283 283 283 282 281 280
282 282 281 281 282 283 283 282 283 284 283 283 283 283 284 283 281 281 281 282 282 283 283 283 283 282 283 282 282 284 284 284 285 285 284 283 282 283 285 285 284 284 282
280 281 280 280 281 282 281 281 281 282 282 284 284 283 284 282 281 281 280 280 281 283 283 284 283 283 283 283 284 284 284 285 285 285 284 283 283 284 285 285 286 285 283
Height
5740 5740 5740 5741 5741 5741 5742 5741 5741 5740 5739 5738 5738 5738 5738 5738 5739 5739 5740 5742 5743 5745 5747 5748 5750 5752 5754 5756 5759 5761 5764 5766 5768 5770 5772 5774 5776 5778 5780 5781 5783 5784 5786
5734 5734 5734 5734 5734 5734 5734 5734 5733 5732 5731 5730 5730 5729 5729 5729 5729 5730 5730 5731 5733 5734 5736 5737 5739 5740 5742 5745 5747 5750 5752 5755 5757 5759 5761 5763 5766 5768 5769 5771 5773 5775 5776
5728 5728 5728 5728 5728 5727 5727 5726 5725 5724 5723 5722 5722 5721 5720 5720 5720 5720 5720 5721 5722 5723 5725 5726 5728 5729 5731 5733 5736 5738 5741 5744 5746 5748 5750 5752 5755 5758 5760 5761 5763 5765 5766
5722 5722 5722 5721 5721 5720 5719 5718 5717 5716 5715 5714 5713 5712 5712 5712 5711 5711 5710 5710 5711 5712 5714 5715 5716 5718 5720 5722 5724 5727 5730 5732 5735 5737 5739 5741 5743 5746 5748 5751 5752 5753 5755
5716 5715 5715 5714 5714 5713 5712 5711 5710 5708 5707 5706 5705 5704 5704 5703 5702 5701 5701 5701 5701 5702 5703 5704 5706 5707 5709 5711 5713 5716 5718 5721 5724 5726 5728 5729 5731 5734 5736 5739 5741 5742 5743
5709 5709 5708 5708 5707 5706 5705 5703 5702 5700 5698 5697 5696 5695 5695 5694 5693 5692 5692 5691 5691 5692 5693 5694 5695 5697 5698 5700 5702 5705 5707 5710 5712 5715 5716 5718 5720 5723 5724 5727 5729 5730 5732
5703 5702 5702 5701 5700 5699 5697 5695 5694 5692 5690 5689 5688 5687 5686 5685 5684 5683 5683 5682 5682 5682 5683 5684 5685 5686 5688 5689 5691 5693 5696 5698 5700 5703 5705 5707 5709 5711 5712 5714 5716 5718 5720
5696 5695 5695 5694 5693 5691 5690 5688 5686 5684 5683 5681 5680 5679 5677 5676 5675 5674 5673 5673 5672 5672 5672 5673 5674 5675 5677 5678 5680 5682 5684 5686 5688 5691 5693 5695 5697 5699 5700 5702 5704 5706 5708
5689 5689 5688 5687 5686 5684 5683 5681 5679 5677 5675 5673 5672 5670 5669 5667 5666 5665 5664 5663 5662 5661 5661 5662 5663 5664 5665 5667 5668 5670 5672 5674 5676 5678 5681 5683 5685 5687 5689 5690 5692 5693 5695
5683 5682 5681 5680 5678 5677 5675 5673 5671 5669 5667 5666 5664 5662 5660 5659 5657 5656 5655 5654 5652 5651 5651 5651 5652 5653 5654 5656 5657 5659 5660 5662 5664 5666 5668 5670 5673 5675 5677 5678 5679 5681 5682
5676 5675 5674 5672 5671 5669 5668 5666 5664 5662 5660 5658 5656 5654 5653 5651 5649 5648 5647 5645 5644 5642 5642 5641 5642 5643 5643 5645 5646 5647 5648 5649 5651 5653 5655 5658 5660 5662 5664 5666 5667 5668 5669
5669 5667 5666 5665 5663 5662 5660 5658 5656 5654 5652 5650 5649 5647 5645 5643 5641 5639 5638 5636 5634 5633 5632 5632 5632 5633 5633 5634 5634 5635 5636 5637 5639 5641 5643 5645 5647 5649 5651 5653 5655 5656 5657
5662 5660 5659 5657 5656 5654 5652 5651 5648 5647 5645 5643 5641 5639 5637 5635 5633 5631 5629 5627 5626 5625 5624 5624 5623 5623 5623 5623 5624 5624 5624 5626 5627 5629 5630 5633 5635 5637 5638 5640 5642 5643 5644
5655 5653 5652 5650 5648 5646 5645 5643 5641 5639 5637 5635 5633 5631 5629 5627 5625 5623 5621 5619 5618 5617 5616 5615 5615 5614 5614 5614 5613 5613 5614 5615 5616 5618 5619 5621 5622 5624 5626 5627 5629 5629 5630
5648 5646 5644 5642 5640 5638 5636 5635 5633 5631 5629 5627 5625 5623 5621 5619 5617 5615 5613 5611 5610 5609 5608 5607 5606 5605 5604 5604 5603 5603 5604 5605 5606 5607 5608 5609 5611 5612 5613 5614 5615 5616 5617
5640 5638 5636 5634 5632 5630 5628 5626 5625 5623 5621 5619 5617 5615 5613 5610 5608 5607 5605 5603 5602 5600 5599 5598 5597 5596 5596 5595 5594 5594 5594 5595 5595 5596 5597 5598 5599 5599 5600 5601 5602 5603 5603
5632 5630 5628 5626 5623 5621 5619 5618 5616 5614 5612 5611 5609 5606 5604 5602 5600 5598 5596 5595 5593 5592 5591 5589 5588 5587 5587 5586 5585 5584 5584 5584 5585 5585 5586 5586 5586 5587 5587 5588 5588 5589 5589
5624 5622 5620 5617 5615 5613 5611 5609 5607 5605 5604 5602 5600 5598 5596 5594 5592 5590 5588 5586 5585 5583 5582 5581 5580 5579 5578 5577 5576 5575 5574 5574 5574 5574 5574 5574 5574 5574 5574 5574 5574 5575 5575
5615 5613 5611 5609 5606 5604 5602 5600 5598 5596 5595 5593 5592 5590 5588 5585 5583 5581 5580 5578 5577 5575 5573 5572 5571 5569 5568 5567 5566 5565 5564 5563 5563 5563 5562 5562 5562 5562 5561 5561 5560 5560 5560
5607 5605 5602 5600 5598 5595 5593 5591 5589 5588 5586 5585 5583 5582 5580 5577 5575 5573 5571 5569 5568 5566 5565 5563 5562 5560 5559 5557 5556 5554 5553 5553 5552 5551 5550 5550 5549 5549 5548 5547 5547 5547 5547
5598 5595 5593 5591 5589 5587 5585 5583 5581 5580 5578 5577 5575 5573 5571 5569 5567 5565 5563 5561 5559 5558 5556 5554 5553 5551 5550 5548 5547 5545 5544 5543 5542 5541 5540 5539 5538 5537 5536 5535 5534 5533 5533
5589 5586 5584 5582 5580 5578 5576 5574 5573 5571 5570 5568 5567 5565 5563 5561 5558 5556 5554 5552 5551 5549 5547 5545 5544 5542 5541 5540 5539 5537 5536 5535 5534 5532 5531 5529 5528 5526 5525 5523 5522 5521 5520
5580 5578 5576 5574 5572 5570 5568 5566 5565 5563 5561 5560 5559 5557 5555 5552 5550 5548 5546 5544 5542 5540 5539 5537 5536 5534 5533 5532 5530 5529 5527 5526 5524 5523 5521 5519 5517 5515 5514 5512 5510 5508 5507
5571 5569 5567 5566 5564 5562 5560 5558 5557 5555 5553 5552 5550 5548 5546 5544 5541 5539 5537 5535 5534 5532 5531 5529 5528 5526 5525 5523 5522 5520 5518 5516 5514 5513 5511 5509 5507 5504 5503 5501 5499 5496 5495
5561 5560 5558 5557 5555 5553 5552 5550 5548 5546 5545 5543 5541 5539 5537 5535 5533 5531 5529 5528 5526 5524 5523 5521 5519 5518 5516 5514 5512 5511 5509 5507 5505 5502 5500 5498 5496 5494 5492 5490 5487 5485 5482
5552 5550 5549 5547 5546 5544 5542 5541 5539 5538 5536 5534 5532 5530 5528 5526 5525 5523 5522 5519 5518 5516 5514 5512 5511 5509 5507 5505 5503 5501 5499 5497 5495 5492 5490 5488 5486 5483 5481 5478 5476 5473 5470